This is the latest recevied weather packets stored in our database for station/object W7BTL. If no packets are shown the sender has not sent any weather packets the latest 10 day(s).
| Time | Temp. | Humidity | Pressure | Rain* | Wind** | Luminosity | Snow |
|---|---|---|---|---|---|---|---|
| 1788544738 | 26.67° C | 54% | 1013.6 hPa | 0 mm | - | 824 W/m² | - |
| 1788544437 | 26.67° C | 56% | 1013.7 hPa | 0 mm | - | 829 W/m² | - |
| 1788544136 | 26.67° C | 54% | 1013.8 hPa | 0 mm | - | 818 W/m² | - |
| 1788543832 | 26.67° C | 55% | 1013.8 hPa | 0 mm | - | 804 W/m² | - |
| 1788543528 | 26.67° C | 53% | 1013.9 hPa | 0 mm | - | 769 W/m² | - |
| 1788543223 | 26.11° C | 55% | 1013.7 hPa | 0 mm | - | 757 W/m² | - |
| 1788542941 | 25.56° C | 58% | 1013.7 hPa | 0 mm | - | 748 W/m² | - |
| 1788542618 | 25.56° C | 58% | 1013.7 hPa | 0 mm | - | 726 W/m² | - |
| 1788542313 | 25.56° C | 60% | 1013.7 hPa | 0 mm | - | 705 W/m² | - |
| 1788542009 | 25.56° C | 57% | 1013.6 hPa | 0 mm | - | 692 W/m² | - |
| 1788541705 | 25.56° C | 56% | 1013.6 hPa | 0 mm | - | 691 W/m² | - |
| 1788541400 | 25° C | 59% | 1013.6 hPa | 0 mm | - | 662 W/m² | - |
| 1788541101 | 24.44° C | 60% | 1013.7 hPa | 0 mm | - | 640 W/m² | - |
| 1788540800 | 24.44° C | 59% | 1013.5 hPa | 0 mm | - | 250 W/m² | - |
| 1788540495 | 24.44° C | 62% | 1013.3 hPa | 0 mm | - | 353 W/m² | - |
| 1788540195 | 23.33° C | 65% | 1013.6 hPa | 0 mm | - | 663 W/m² | - |
| 1788539892 | 23.89° C | 66% | 1013.5 hPa | 0 mm | - | 248 W/m² | - |
| 1788539592 | 23.89° C | 64% | 1013.4 hPa | 0 mm | - | 268 W/m² | - |
| 1788539291 | 23.89° C | 64% | 1013.2 hPa | 0 mm | - | 381 W/m² | - |
| 1788538987 | 23.89° C | 63% | 1013.4 hPa | 0 mm | - | 453 W/m² | - |
| 1788538682 | 23.89° C | 64% | 1013.1 hPa | 0 mm | - | 481 W/m² | - |
| 1788538382 | 23.33° C | 67% | 1013.3 hPa | 0 mm | - | 394 W/m² | - |
| 1788538077 | 23.89° C | 64% | 1013.2 hPa | 0 mm | - | 412 W/m² | - |
| 1788537773 | 24.44° C | 63% | 1013.2 hPa | 0 mm | - | 383 W/m² | - |
| 1788537473 | 24.44° C | 64% | 1013 hPa | 0 mm | - | 432 W/m² | - |
* Rain latest hour (hover to see other rain measurements)
** Current wind speed in m/s (hover to see current wind gust speed)